Regional Weather Roundup
Issued by NWS

Home | Current Version | Previous Version | Graphics & Text | Print | Product List | Glossary On
Versions: 1 2 3 4 5 6 7 8 9 10 11 12 13 14 15 16 17 18 19 20 21 22 23 24 25 26 27 28 29 30 31 32 33 34 35 36 37 38 39 40 41 42 43 44 45 46 47 48 49 50
000
ASUS43 KLOT 260610
RWRIL

ILLINOIS REGIONAL WEATHER ROUNDUP
NATIONAL WEATHER SERVICE CHICAGO/ROMEOVILLE IL
1200 AM CST MON JAN 26 2015

NOTE: "FAIR" INDICATES FEW OR NO CLOUDS BELOW 12,000 FEET WITH NO
SIGNIFICANT WEATHER AND/OR OBSTRUCTIONS TO VISIBILITY.

* THESE STATIONS ARE NOT UNDER NWS QUALITY CONTROL. THEY ALSO MAY NOT
  REPORT WEATHER SUCH AS PRECIPITATION OR FOG.

ILZ001-002-007-009-015-016-024-260700-
NORTHWEST ILLINOIS

CITY           SKY/WX    TMP DP  RH WIND       PRES   REMARKS
MOLINE         MOCLDY    20  12  71 VRB3      30.05S
6HR MIN TEMP:  20; 6HR MAX TEMP:  27;

STERLING*      MOCLDY    19  12  73 N8        30.03S WCI   9
SAVANNA*       CLOUDY    19  13  75 CALM      30.05F
$$

ILZ003-004-008-010-011-017-018-260700-
NORTH CENTRAL ILLINOIS

CITY           SKY/WX    TMP DP  RH WIND       PRES   REMARKS
ROCKFORD       CLOUDY    16  10  77 N7        30.04R WCI   6
6HR MIN TEMP:  16; 6HR MAX TEMP:  24;

FREEPORT*      MOCLDY    15  11  83 N5        30.05S WCI   7
ROCHELLE*      PTCLDY    17  12  82 N8        30.02S WCI   6
DE KALB*       CLEAR     15  11  82 NW8       29.99S WCI   4
PERU*          PTCLDY    19  14  81 N7        30.02S WCI  10
$$

ILZ005-006-012>014-019>023-260700-
NORTHEAST ILLINOIS

CITY           SKY/WX    TMP DP  RH WIND       PRES   REMARKS
CHICAGO-OHARE  MOCLDY    24  15  68 NE13      29.97F WCI  12
6HR MIN TEMP:  24; 6HR MAX TEMP:  26;

CHICAGO-MIDWAY MOCLDY    26  17  68 E14       29.97F WCI  14
6HR MIN TEMP:  26; 6HR MAX TEMP:  29; 6HR PCP: TRACE;

AURORA         CLEAR     18  12  77 NW6       29.99F WCI  10
6HR MIN TEMP:  17; 6HR MAX TEMP:  26;

LANSING*       CLOUDY    25  18  77 NE9       29.97S WCI  15
JOLIET*        PTCLDY    21  16  81 N3        29.98F
WAUKEGAN       PTCLDY    23  14  68 NE9       29.98S WCI  13
6HR MIN TEMP:  22; 6HR MAX TEMP:  25;

DUPAGE AIRPORT CLEAR     18  12  77 NW8       29.97F WCI   8
6HR MIN TEMP:  15; 6HR MAX TEMP:  25;

KANKAKEE*      CLOUDY    26  20  77 N12G17    29.97S WCI  16
WHEELING       MOCLDY    24  15  68 NE8       30.00F WCI  15
6HR MIN TEMP:  24; 6HR MAX TEMP:  26;

MORRIS*        CLEAR     20  17  88 N5        29.98F WCI  13
ROMEOVILLE*    CLOUDY    24  17  74 E12       29.97F WCI  13
NORTHERLY ISL    N/A     25  18  74 NE14        N/A  WCI  13
$$

LMZ740>746-260700-
SOUTHERN LAKE MICHIGAN

STATION/POSITION SKY/WX   TEMP    WIND        PRES    VSBY  WAVE
                          AIR SEA DIR/SP/G                  HT/PER
                          (F)     (DEG/KT/KT) (MB)    (MI)  (FT/S)
WAUKEGAN HARBOR            25      60/ 15/ 18   N/A
HARRISON CRIB              24      30/ 16/ 20   N/A
BURNHAM HARBOR             25      40/ 13/ 18   N/A
CALUMET HARBOR             25      20/ 11/ 15   N/A
MICHIGAN CITY              21      30/ 16/ 19   N/A
$$

ILZ025>027-034>036-040-047-049-050-058-095>099-260700-
WEST-CENTRAL ILLINOIS

CITY           SKY/WX    TMP DP  RH WIND       PRES   REMARKS
QUINCY         PTCLDY    24  20  84 NW8       30.05S WCI  15
GALESBURG*     MOCLDY    20  17  86 N8        30.03F WCI  11
MACOMB*        PTCLDY    24  20  85 N9        30.07S WCI  14
JACKSONVILLE*  CLEAR     27  19  72 N10       30.03S WCI  17
PITTSFIELD*    CLEAR     27  20  77 NW8       30.06R WCI  18
$$

ILZ028>032-037-038-041>044-048-051>054-059>061-260700-
CENTRAL ILLINOIS

CITY           SKY/WX    TMP DP  RH WIND       PRES   REMARKS
PONTIAC        CLEAR     25  21  84 N8        29.98F WCI  16
BLOOMINGTON    CLEAR     24  21  88 N8        29.97F WCI  15
DECATUR        CLOUDY    29  27  92 N15       29.97R WCI  18
PEORIA         CLEAR     23  15  71 N7        30.03R WCI  15
6HR MIN TEMP:  23; 6HR MAX TEMP:  30;

LACON*         PTCLDY    20  15  78 NW6       30.02  WCI  13
LINCOLN*       PTCLDY    26  21  81 N7        30.01F WCI  19
SPRINGFIELD    CLOUDY    26  20  77 N9        30.01F WCI  17
6HR MIN TEMP:  26; 6HR MAX TEMP:  32;

TAYLORVILLE    CLOUDY    28  25  86 N14G22    29.99F WCI  17
$$

ILZ033-039-045-046-055>057-062-063-260700-
EAST-CENTRAL ILLINOIS

CITY           SKY/WX    TMP DP  RH WIND       PRES   REMARKS
CHAMPAIGN      CLOUDY    28  23  81 N15       29.95R WCI  16
DANVILLE*      CLOUDY    26  22  85 NE13      29.90S WCI  15
RANTOUL*       CLOUDY    29  24  82 N12       29.95R WCI  19
MATTOON        CLOUDY    28  24  85 N21       29.92R WCI  15
PARIS*         CLOUDY    28  25  88 NE8       29.92S WCI  20
$$

ILZ079-100>102-260700-
SOUTHWEST ILLINOIS

CITY           SKY/WX    TMP DP  RH WIND       PRES   REMARKS
ALTON          CLOUDY    30  22  74 NW9G21    30.02S WCI  21
BELLEVILLE     CLOUDY    31  28  86 NW18      30.00R WCI  19
CAHOKIA*       CLOUDY    32  26  78 N15       30.02R WCI  22
SPARTA*        CLOUDY    31  27  84 N13G21    30.00R WCI  22
$$

ILZ064>066-069>071-074>076-080>082-084>086-088>090-092>094-260700-
SOUTH-CENTRAL ILLINOIS

CITY           SKY/WX    TMP DP  RH WIND       PRES   REMARKS
CARBONDALE     CLOUDY    33  29  85 NW15G24   29.95R WCI  23
6HR MIN TEMP:  33; 6HR MAX TEMP:  43; 6HR PCP: TRACE;

CAIRO*         CLOUDY    37  33  84 NW20G25   29.93R WCI  27
EFFINGHAM*     CLOUDY    31  25  79 N12G22    29.95R WCI  22
MARION         CLOUDY    34  32  93 NW13G21   29.94R WCI  25
MT. VERNON     CLOUDY    32  25  74 N9        29.94R WCI  24
CENTRALIA*     CLOUDY    32  27  83 N17G24    29.96R WCI  21
SALEM*         CLOUDY    33  29  84 N18       29.95R WCI  22
METROPOLIS*    CLOUDY    36  36  99 NW17G24   29.90R WCI  26
$$

ILZ067-068-072-073-078-083-087-091-260700-
SOUTHEAST ILLINOIS

CITY           SKY/WX    TMP DP  RH WIND       PRES   REMARKS
LAWRENCEVILLE  CLOUDY    29  24  82 N20G30    29.89R WCI  16
FLORA*         CLOUDY    31  27  83 N16G28    29.93R WCI  20
FAIRFIELD*     CLOUDY    32  28  85 N17G25    29.90S WCI  21
HARRISBURG*    CLOUDY    34  31  90 N15G24    29.92R WCI  24
ROBINSON*      CLOUDY    29  24  83 N16G25    29.91R WCI  17
CARMI*         CLOUDY    34  32  93 N22G28    29.88S WCI  22
$$

ABBREVIATIONS USED IN REMARKS
   TC - TEMPERATURE IN CELSIUS
  WCI - WIND CHILL INDEX
   HX - HEAT INDEX
  VSB - VISIBILITY
$$



USA.gov is the U.S. government's official web portal to all federal, state and local government web resources and services.